Main page
METAR-TAF:

METAR-TAF

Airports :

Vlissingen, Netherlands

latitude: 51-27N, longitude: 3-36E, elevation: 10 m

Current weather observation

The report was made 22 minutes ago, at 03:25 UTC
Wind 19 kt from the Southwest
Temperature 13°C
Humidity 77%
Pressure 1001 hPa
Visibility 10 km or more

METAR: EHFS 240325Z AUTO 22019KT 9999 FEW029/// 13/09 Q1001

Time: 05:47 (03:47 UTC)


TAF: missing

Weather observations and forecasts of more than 4000 airports (METAR and TAF reports).

The available stations are represented by yellow and red dots on the map.

Hover mouse over dot to see the name of the station.

Then click to see weather observations and forecasts.

To change the map : click on the green buttons with a black cross to zoom in, on the green button with a dash to zoom out, or on the green arrows for adjacent maps.


METAR-TAF: